Bigfork, MN

1:12 PM CDT on August 17, 2017 (GMT -0500)
Bigfork Municipal

Weather History for KFOZ - February, 2012

Change the Weather History Date:

Sunday, February 19, 2012

  Actual Average (KGPZ) Record (KGPZ)
Temperature  
Mean Temperature 20 °F -  
Max Temperature 41 °F 27 °F 53 °F (2017)
Min Temperature 0 °F 5 °F -35 °F (1929)
Degree Days  
Heating Degree Days 44    
Moisture  
Dew Point 9 °F    
Average Humidity 66    
Maximum Humidity 86    
Minimum Humidity 42    
Precipitation  
Precipitation 0.00 in - - ()
Sea Level Pressure  
Sea Level Pressure 30.00 in    
Wind  
Wind Speed 2 mph (South)    
Max Wind Speed 14 mph    
Max Gust Speed 20 mph    
Visibility 10 miles    
Events      
Averages and records for this station are not official NWS values.
T = Trace of Precipitation, MM = Missing Value Source: NWS Daily Summary

Daily Weather History Graph

Daily Weather History Graph

Search for Another Location

Airport or City:

Trip Planner

Search our weather history database for the weather conditions in past years. The results will help you decide how hot, cold, wet, or windy it might be!

Date:

Astronomy

Feb. 19, 2012 Rise Set
Actual Time 7:14 AM CST 5:43 PM CST
Civil Twilight 6:42 AM CST 6:14 PM CST
Nautical Twilight 6:06 AM CST 6:50 PM CST
Astronomical Twilight 5:31 AM CST 7:26 PM CST
Moon 5:43 AM CST (2/19) 3:39 PM CST (2/19)
Length of Visible Light 11h 31m
Length of Day
10h 28m
Waning Crescent, 5% of the Moon is Illuminated
Feb 19
Waning Crescent
Feb 21
New
Feb 29
First Quarter
Mar 8
Full
Mar 14
Last Quarter

Hourly Weather History & Observations

Time (CST) Temp. Windchill Dew Point Humidity Pressure Visibility Wind Dir Wind Speed Gust Speed Precip Events Conditions
12:14 AM 8.6 °F - 3.2 °F 79% 30.08 in 10.0 mi Calm Calm - N/A   Clear
12:34 AM 6.8 °F - 3.2 °F 85% 30.08 in 10.0 mi Calm Calm - N/A   Clear
12:54 AM 5.0 °F - 1.4 °F 85% 30.07 in 10.0 mi Calm Calm - N/A   Clear
1:14 AM 5.0 °F - 1.4 °F 85% 30.07 in 10.0 mi Calm Calm - N/A   Clear
1:34 AM 3.2 °F - -0.4 °F 85% 30.07 in 10.0 mi Calm Calm - N/A   Clear
1:54 AM 3.2 °F - -0.4 °F 85% 30.06 in 10.0 mi Calm Calm - N/A   Clear
2:14 AM 3.2 °F - -0.4 °F 85% 30.05 in 10.0 mi Calm Calm - N/A   Clear
2:34 AM 1.4 °F - -2.2 °F 85% 30.05 in 10.0 mi Calm Calm - N/A   Clear
2:54 AM 1.4 °F - -2.2 °F 85% 30.05 in 10.0 mi Calm Calm - N/A   Clear
3:14 AM 1.4 °F - -2.2 °F 85% 30.04 in 10.0 mi Calm Calm - N/A   Clear
3:34 AM 1.4 °F - -2.2 °F 85% 30.04 in 10.0 mi Calm Calm - N/A   Clear
3:54 AM 1.4 °F - -4.0 °F 78% 30.04 in 10.0 mi Calm Calm - N/A   Clear
4:14 AM 1.4 °F - -4.0 °F 78% 30.04 in 10.0 mi Calm Calm - N/A   Clear
4:34 AM 1.4 °F - -2.2 °F 85% 30.03 in 10.0 mi Calm Calm - N/A   Clear
4:54 AM -0.4 °F - -5.8 °F 78% 30.03 in 10.0 mi Calm Calm - N/A   Clear
5:14 AM 1.4 °F - -4.0 °F 78% 30.03 in 10.0 mi Calm Calm - N/A   Clear
5:34 AM -0.4 °F - -5.8 °F 78% 30.03 in 10.0 mi Calm Calm - N/A   Clear
5:54 AM -0.4 °F - -4.0 °F 85% 30.03 in 10.0 mi Calm Calm - N/A   Clear
6:14 AM -0.4 °F - -5.8 °F 78% 30.03 in 10.0 mi Calm Calm - N/A   Clear
6:34 AM -0.4 °F - -5.8 °F 78% 30.03 in 10.0 mi Calm Calm - N/A   Clear
6:54 AM -0.4 °F - -5.8 °F 78% 30.03 in 10.0 mi Calm Calm - N/A   Clear
7:15 AM -0.4 °F - -5.8 °F 78% 30.03 in 10.0 mi Calm Calm - N/A   Clear
7:34 AM -0.4 °F - -5.8 °F 78% 30.03 in 10.0 mi Calm Calm - N/A   Clear
7:54 AM 1.4 °F - -2.2 °F 85% 30.03 in 10.0 mi Calm Calm - N/A   Clear
8:14 AM 5.0 °F - 1.4 °F 85% 30.03 in 10.0 mi Calm Calm - N/A   Clear
8:34 AM 10.4 °F - 6.8 °F 85% 30.03 in 10.0 mi Calm Calm - N/A   Clear
9:14 AM 15.8 °F 10.2 °F 12.2 °F 86% 30.03 in 10.0 mi South 3.5 mph - N/A   Clear
9:34 AM 19.4 °F 14.3 °F 14.0 °F 80% 30.03 in 10.0 mi South 3.5 mph - N/A   Clear
9:54 AM 24.8 °F 17.9 °F 17.6 °F 74% 30.02 in 10.0 mi South 5.8 mph - N/A   Clear
10:14 AM 26.6 °F 20.0 °F 17.6 °F 69% 30.02 in 10.0 mi South 5.8 mph - N/A   Clear
10:34 AM 30.2 °F 25.4 °F 17.6 °F 60% 30.01 in 10.0 mi South 4.6 mph - N/A   Clear
10:54 AM 30.2 °F 22.6 °F 19.4 °F 64% 30.01 in 10.0 mi South 8.1 mph - N/A   Clear
11:14 AM 33.8 °F 28.6 °F 19.4 °F 56% 30.01 in 10.0 mi South 5.8 mph - N/A   Clear
11:34 AM 35.6 °F 32.8 °F 19.4 °F 52% 30.01 in 10.0 mi SSE 3.5 mph - N/A   Clear
11:54 AM 35.6 °F 30.7 °F 19.4 °F 52% 30.01 in 10.0 mi South 5.8 mph - N/A   Clear
12:14 PM 37.4 °F 30.3 °F 19.4 °F 48% 30.00 in 10.0 mi South 10.4 mph - N/A   Clear
12:34 PM 37.4 °F 29.8 °F 19.4 °F 48% 29.99 in 10.0 mi South 11.5 mph - N/A   Clear
12:54 PM 39.2 °F 32.0 °F 19.4 °F 45% 29.98 in 10.0 mi South 11.5 mph - N/A   Clear
1:14 PM 39.2 °F 31.2 °F 19.4 °F 45% 29.98 in 10.0 mi South 13.8 mph 19.6 mph N/A   Clear
1:34 PM 39.2 °F 32.0 °F 19.4 °F 45% 29.98 in 10.0 mi SSW 11.5 mph 17.3 mph N/A   Clear
1:54 PM 39.2 °F 33.6 °F 19.4 °F 45% 29.97 in 10.0 mi South 8.1 mph - N/A   Clear
2:34 PM 39.2 °F 32.0 °F 19.4 °F 45% 29.96 in 10.0 mi South 11.5 mph - N/A   Clear
2:54 PM 41.0 °F 35.8 °F 19.4 °F 42% 29.96 in 10.0 mi SSE 8.1 mph - N/A   Clear
3:14 PM 41.0 °F 36.4 °F 19.4 °F 42% 29.96 in 10.0 mi South 6.9 mph - N/A   Scattered Clouds
3:54 PM 39.2 °F 32.5 °F 19.4 °F 45% 29.95 in 10.0 mi South 10.4 mph - N/A   Clear
4:14 PM 41.0 °F 36.4 °F 19.4 °F 42% 29.94 in 10.0 mi SSE 6.9 mph - N/A   Clear
4:34 PM 39.2 °F 35.0 °F 19.4 °F 45% 29.94 in 10.0 mi SSE 5.8 mph - N/A   Clear
4:54 PM 39.2 °F 33.0 °F 19.4 °F 45% 29.94 in 10.0 mi South 9.2 mph - N/A   Clear
5:14 PM 37.4 °F 32.8 °F 17.6 °F 45% 29.94 in 10.0 mi SSE 5.8 mph - N/A   Clear
5:34 PM 37.4 °F 32.8 °F 17.6 °F 45% 29.94 in 10.0 mi SSE 5.8 mph - N/A   Clear
5:54 PM 35.6 °F 29.9 °F 17.6 °F 48% 29.95 in 10.0 mi SSE 6.9 mph - N/A   Clear
6:14 PM 35.6 °F 30.7 °F 17.6 °F 48% 29.95 in 10.0 mi SSE 5.8 mph - N/A   Clear
6:34 PM 35.6 °F 29.9 °F 17.6 °F 48% 29.95 in 10.0 mi SSE 6.9 mph - N/A   Clear
6:54 PM 33.8 °F 28.6 °F 17.6 °F 52% 29.96 in 10.0 mi South 5.8 mph - N/A   Clear
7:14 PM 33.8 °F 28.6 °F 17.6 °F 52% 29.95 in 10.0 mi SSE 5.8 mph - N/A   Clear
7:34 PM 33.8 °F 28.6 °F 17.6 °F 52% 29.95 in 10.0 mi South 5.8 mph - N/A   Clear
7:54 PM 32.0 °F 28.7 °F 17.6 °F 55% 29.95 in 10.0 mi SSE 3.5 mph - N/A   Clear
8:14 PM 32.0 °F 28.7 °F 17.6 °F 55% 29.95 in 10.0 mi SSE 3.5 mph - N/A   Clear
8:34 PM 30.2 °F 24.3 °F 17.6 °F 60% 29.95 in 10.0 mi SSE 5.8 mph - N/A   Clear
8:54 PM 30.2 °F 25.4 °F 17.6 °F 60% 29.95 in 10.0 mi South 4.6 mph - N/A   Clear
9:14 PM 32.0 °F 25.6 °F 17.6 °F 55% 29.96 in 10.0 mi SSE 6.9 mph - N/A   Clear
9:34 PM 32.0 °F 25.6 °F 17.6 °F 55% 29.96 in 10.0 mi SSE 6.9 mph - N/A   Clear
9:54 PM 32.0 °F 26.4 °F 17.6 °F 55% 29.95 in 10.0 mi SSE 5.8 mph - N/A   Clear
10:14 PM 32.0 °F 25.6 °F 17.6 °F 55% 29.96 in 10.0 mi SSE 6.9 mph - N/A   Clear
10:34 PM 32.0 °F 25.6 °F 17.6 °F 55% 29.96 in 10.0 mi South 6.9 mph - N/A   Clear
10:54 PM 32.0 °F 24.8 °F 17.6 °F 55% 29.96 in 10.0 mi South 8.1 mph - N/A   Clear
11:14 PM 32.0 °F 24.8 °F 17.6 °F 55% 29.96 in 10.0 mi South 8.1 mph - N/A   Clear
11:34 PM 30.2 °F 22.6 °F 17.6 °F 60% 29.95 in 10.0 mi SSE 8.1 mph - N/A   Clear
11:54 PM 30.2 °F 22.6 °F 17.6 °F 60% 29.95 in 10.0 mi SSE 8.1 mph - N/A   Clear